Skip Page Navigation
NASA JPL Caltech
NASA Logo - Jet Propulsion Laboratory + View the NASA Portal
+ Near-Earth Object (NEO) Program
Search JPL
JPL Home Earth Solar System Stars & Galaxies Technology
JPL Solar System Dynamics
BODIES ORBITS EPHEMERIDES TOOLS PHYSICAL DATA DISCOVERY FAQ SITE MAP
JPL Small-Body Database Browser
Search: [ help ]  
7798 (1996 CL)
Classification: Main-belt Asteroid          SPK-ID: 2007798
Ephemeris | Orbit Diagram | Orbital Elements | Physical Parameters | Discovery Circumstances | Close-Approach Data ]

[ show orbit diagram ]
Orbital Elements at Epoch 2457000.5 (2014-Dec-09.0) TDB
Reference: JPL 7 (heliocentric ecliptic J2000)
 Element Value Uncertainty (1-sigma)   Units 
e .1291720922645374 6.8186e-08  
a 2.478561637428272 1.9913e-08 AU
q 2.158400644915045 1.6932e-07 AU
i 5.549917688932132 6.0294e-06 deg
node 98.4793506397062 7.7188e-05 deg
peri 336.3195579446975 8.2991e-05 deg
M 2.200996109699918 3.1516e-05 deg
tp 2456991.786055565148
(2014-Nov-30.28605556)
0.00012472 JED
period 1425.272849289295
3.90
1.7176e-05
4.703e-08
d
yr
n .2525832160343981 3.044e-09 deg/d
Q 2.7987226299415 2.2486e-08 AU
  Orbit Determination Parameters
   # obs. used (total)      990  
   data-arc span      8228 days (22.53 yr)  
   first obs. used      1992-02-23  
   last obs. used      2014-09-03  
   planetary ephem.      DE431  
   SB-pert. ephem.      SB431-BIG16  
   condition code      0  
   fit RMS      .46242  
   data source      ORB  
   producer      Otto Matic  
   solution date      2014-Sep-12 13:52:25  

Additional Information
 Earth MOID = 1.17455 AU 
 T_jup = 3.462 
[ show covariance matrix ]

Ephemeris | Orbit Diagram | Orbital Elements | Physical Parameters | Discovery Circumstances | Close-Approach Data ]

Physical Parameter Table
Parameter Symbol Value Units Sigma Reference Notes
absolute magnitude H 13.5 mag n/a MPO267739  

7798 (1996 CL)          Discovered 1996-Feb-01 by Beijing Schmidt CCD Asteroid Program at Xinglong
Reference: DISCOVERY.DBLast Updated: 2003-08-29

[ show close-approach data ]
Alternate Designations
 1996 CL = 1992 DK13 
Ephemeris | Orbit Diagram | Orbital Elements | Physical Parameters | Discovery Circumstances | Close-Approach Data ]
ABOUT SSD CREDITS/AWARDS PRIVACY/COPYRIGHT GLOSSARY LINKS
FirstGov 2014-Oct-24 18:49 UT
(server date/time)  
NASA Home Page
Site Manager:   Donald K. Yeomans
Webmaster  Alan B. Chamberlin